ASV901 RKPC-RKSS

Flight info

Callsign ASV901
Flight time N/A
Altitude 33000
Route KAMIT2E KAMIT Y722 OLMEN OLMEN2T
Aircraft A321/M-SDE3FGHIRWY/LB1

Departure

Time 2026-05-05 03:11
Airport Jeju International Airport (RKPC)

Arrival

Time N/A
Airport Gimpo International Airport (RKSS)
Time Latitude Longitude Altitude Speed Heading
2026-05-05 02:50 33.50708 126.49183 91 ft 0 kts 155°
2026-05-05 03:00 33.50710 126.49182 90 ft 3 kts 156°
2026-05-05 03:00 33.50735 126.49170 92 ft 4 kts 167°
2026-05-05 03:01 33.50762 126.49165 90 ft 4 kts 179°
2026-05-05 03:01 33.50782 126.49166 91 ft 0 kts 187°
2026-05-05 03:04 33.50781 126.49166 91 ft 1 kts 188°
2026-05-05 03:04 33.50766 126.49142 91 ft 6 kts 251°
2026-05-05 03:04 33.50754 126.49084 91 ft 8 kts 257°
2026-05-05 03:05 33.50731 126.49013 92 ft 10 kts 239°
2026-05-05 03:05 33.50704 126.48936 93 ft 11 kts 276°
2026-05-05 03:05 33.50760 126.48875 90 ft 12 kts 329°
2026-05-05 03:05 33.50792 126.48791 89 ft 13 kts 255°
2026-05-05 03:06 33.50746 126.48694 91 ft 15 kts 239°
2026-05-05 03:06 33.50679 126.48563 91 ft 20 kts 238°
2026-05-05 03:06 33.50603 126.48418 92 ft 21 kts 238°
2026-05-05 03:06 33.50525 126.48263 94 ft 22 kts 238°
2026-05-05 03:07 33.50442 126.48102 93 ft 23 kts 238°
2026-05-05 03:07 33.50356 126.47933 96 ft 24 kts 239°
2026-05-05 03:07 33.50266 126.47760 94 ft 25 kts 239°
2026-05-05 03:07 33.50175 126.47580 96 ft 26 kts 238°
2026-05-05 03:08 33.50080 126.47396 97 ft 25 kts 238°
2026-05-05 03:08 33.49995 126.47229 96 ft 22 kts 239°
2026-05-05 03:08 33.49913 126.47071 100 ft 19 kts 237°
2026-05-05 03:08 33.49892 126.46940 98 ft 16 kts 309°
2026-05-05 03:09 33.49904 126.46928 99 ft 0 kts 322°
2026-05-05 03:09 33.49919 126.46915 98 ft 8 kts 327°
2026-05-05 03:10 33.49995 126.46892 98 ft 13 kts 15°
2026-05-05 03:10 33.50062 126.46980 98 ft 17 kts 57°
2026-05-05 03:10 33.50230 126.47304 97 ft 84 kts 59°
2026-05-05 03:10 33.50661 126.48145 94 ft 150 kts 58°
2026-05-05 03:11 33.51245 126.49278 596 ft 164 kts 57°
2026-05-05 03:11 33.51889 126.50433 1409 ft 168 kts 51°
2026-05-05 03:11 33.52737 126.51448 2043 ft 178 kts 44°
2026-05-05 03:11 33.53699 126.52519 2338 ft 200 kts 44°
2026-05-05 03:12 33.54774 126.53711 2569 ft 221 kts 44°
2026-05-05 03:12 33.55928 126.54994 2951 ft 230 kts 44°
2026-05-05 03:12 33.57102 126.56309 3406 ft 235 kts 44°
2026-05-05 03:12 33.58353 126.57719 3581 ft 260 kts 44°
2026-05-05 03:13 33.59705 126.59248 4191 ft 271 kts 44°
2026-05-05 03:13 33.61086 126.60812 5018 ft 275 kts 43°
2026-05-05 03:13 33.62484 126.62402 5814 ft 278 kts 43°
2026-05-05 03:13 33.63899 126.64014 6617 ft 282 kts 43°
2026-05-05 03:14 33.65330 126.65645 7367 ft 286 kts 44°
2026-05-05 03:14 33.66782 126.67297 8121 ft 289 kts 44°
2026-05-05 03:14 33.68250 126.68968 8871 ft 293 kts 44°
2026-05-05 03:14 33.69835 126.70474 9587 ft 297 kts 30°
2026-05-05 03:15 33.71762 126.71442 9934 ft 302 kts 12°
2026-05-05 03:15 33.73889 126.71754 10004 ft 321 kts
2026-05-05 03:15 33.76098 126.71961 9997 ft 318 kts
2026-05-05 03:15 33.78330 126.72181 9998 ft 318 kts
2026-05-05 03:16 33.80581 126.72412 9993 ft 322 kts
2026-05-05 03:16 33.82846 126.72652 9996 ft 324 kts
2026-05-05 03:16 33.85109 126.72896 9998 ft 326 kts
2026-05-05 03:16 33.87370 126.73139 9998 ft 328 kts
2026-05-05 03:17 33.89634 126.73381 10004 ft 330 kts
2026-05-05 03:17 33.91887 126.73621 10005 ft 328 kts
2026-05-05 03:17 33.94144 126.73861 10003 ft 325 kts
2026-05-05 03:17 33.96404 126.74098 10005 ft 324 kts